GFSNGP_sfc_thetae_009.txt.gz
Theta_e
306 309 306 305 307 308 303 301 299 301 306 312 316 315 320 326 321 320 332 334 334 334 337 338 340 338 336 335 338 338 336 335 334 333 336 339 338 337 337 336 334 333 333 332
305 310 310 307 309 311 309 308 303 308 307 317 317 317 316 325 330 323 333 335 337 338 336 336 338 340 342 341 340 340 338 336 335 334 335 337 335 336 335 334 333 333 332 329
298 308 308 301 307 311 312 312 306 303 309 314 312 317 315 321 333 332 334 332 332 333 332 331 329 332 331 333 336 338 335 339 338 336 334 333 334 333 332 329 328 325 323 317
300 304 295 306 314 314 312 313 316 314 313 314 315 319 321 325 328 332 332 330 328 328 326 325 324 325 328 331 331 333 335 336 335 337 334 332 332 330 327 324 320 318 315 310
299 298 304 308 313 310 309 310 317 313 315 318 318 322 328 331 331 328 326 325 323 322 321 320 322 325 328 328 330 331 338 334 332 331 332 331 329 325 321 315 311 309 308 309
302 297 295 305 315 318 315 304 320 318 317 314 319 316 317 326 326 322 321 320 320 321 320 319 318 320 320 319 321 324 327 325 323 322 324 322 322 319 315 312 309 307 305 304
301 299 304 315 319 319 303 307 324 320 318 320 320 323 324 324 320 320 319 319 318 316 314 315 315 314 312 313 312 315 317 316 315 315 313 312 311 310 309 308 306 304 303 303
300 297 295 325 319 311 320 324 328 328 326 324 325 324 323 322 319 317 316 317 315 312 311 311 312 311 309 308 310 311 312 311 311 311 310 309 307 306 305 304 303 302 302 302
306 306 318 318 321 327 329 326 326 325 325 325 323 322 319 316 316 316 315 314 313 311 309 309 310 309 307 308 309 309 308 308 308 308 308 307 305 304 303 303 302 301 301 300
308 314 313 318 319 323 324 328 327 327 326 325 321 317 315 314 314 314 313 312 312 310 308 307 308 309 309 309 310 309 308 309 309 308 307 307 307 306 304 303 302 301 300 300
309 315 313 318 321 324 326 328 327 326 325 322 319 317 315 315 313 312 311 311 312 309 308 307 309 309 310 310 309 306 304 302 301 300 299 298 298 300 300 298 300 299 299 299
304 316 311 317 321 323 323 321 324 323 321 321 319 316 316 313 312 311 310 311 311 311 311 311 311 310 310 310 308 302 299 299 299 298 297 296 294 293 297 296 294 293 295 294
312 315 321 321 323 325 321 322 324 322 321 319 318 316 315 312 312 311 312 311 311 311 312 312 312 311 310 307 303 300 298 298 298 297 296 294 292 291 290 291 294 293 292 292
317 314 315 318 313 322 323 323 322 322 320 318 317 316 315 312 312 311 311 313 314 314 313 313 312 310 311 309 307 304 302 303 299 298 297 296 294 292 291 291 289 289 292 291
314 318 317 317 321 323 321 322 319 317 317 316 317 315 314 312 312 312 312 315 315 314 313 314 312 311 310 309 305 302 301 300 300 299 300 299 297 295 295 296 294 291 289 291
314 318 318 315 318 319 319 318 316 316 317 317 316 315 315 315 314 313 313 314 311 307 308 308 309 310 310 308 306 304 304 308 308 304 304 303 302 301 300 298 295 292 293 291
310 312 313 312 314 316 318 319 317 316 318 317 315 315 314 314 312 311 310 312 311 310 311 310 310 312 312 310 308 309 305 305 308 306 306 303 303 301 300 301 299 297 295 296
315 314 317 315 312 313 318 319 318 318 318 318 316 315 313 311 309 309 310 310 311 312 316 314 315 316 317 316 315 309 306 305 305 306 305 303 303 302 301 300 298 294 291 289
316 314 317 321 319 318 319 318 318 318 320 318 315 312 310 308 309 310 311 311 311 313 314 316 321 319 313 315 312 312 310 311 308 307 304 304 303 302 301 300 300 296 292 290
315 314 314 321 322 321 319 318 318 316 317 315 312 310 309 308 309 309 311 311 314 316 317 316 315 314 316 313 313 307 308 308 309 307 304 303 303 303 302 300 299 298 295 294
311 312 312 320 320 320 319 319 316 313 315 313 312 309 308 307 309 313 312 311 313 316 315 315 315 314 313 309 308 305 305 307 307 307 305 304 304 303 303 301 299 297 296 295
314 317 318 319 317 317 317 315 314 310 307 310 309 308 309 311 312 313 314 312 312 307 311 310 305 309 305 308 305 304 305 305 304 304 304 304 304 302 302 299 297 297 296 295
317 316 315 313 312 310 311 311 312 311 312 312 311 312 311 311 311 309 306 308 307 305 307 303 299 308 306 304 304 304 304 304 302 301 301 302 303 301 300 299 298 297 295 294
313 312 311 311 310 308 307 308 309 310 310 311 311 312 311 308 307 309 309 305 305 305 305 302 302 304 304 302 301 301 302 302 301 300 300 298 300 300 299 296 296 295 294 295
309 309 309 308 306 305 306 307 307 307 308 309 310 312 313 314 309 307 307 305 302 305 304 302 304 302 300 300 300 301 302 301 300 298 299 299 299 298 298 298 296 295 295 296
306 306 306 306 306 306 307 307 306 307 307 307 310 311 311 310 308 308 308 306 307 306 307 305 302 301 300 301 301 302 301 300 298 298 298 298 297 298 297 297 295 295 296 296
306 304 306 306 307 307 307 307 307 307 308 309 309 310 310 308 307 307 306 308 308 308 307 306 303 302 301 301 299 300 300 300 298 298 299 297 298 298 298 298 297 298 297 297

GFSNGP_sfc_thetae_015.txt.gz
Theta_e
299 299 302 303 304 301 297 296 294 296 297 302 310 311 315 322 323 322 323 323 323 325 327 329 329 327 328 331 333 334 331 331 330 330 331 332 331 328 328 328 327 326 326 326
297 304 305 304 306 307 306 302 300 300 299 306 312 317 316 317 318 320 320 324 326 328 331 333 331 330 330 330 333 334 331 330 330 332 332 331 330 328 328 322 317 319 320 323
293 301 302 295 302 304 306 306 305 300 303 312 314 316 317 317 316 319 321 325 327 328 326 323 323 325 326 328 331 334 333 334 332 332 330 329 329 326 321 316 311 310 314 318
294 296 289 299 307 309 307 311 311 309 311 314 315 317 318 318 318 322 324 327 323 321 318 318 320 322 324 327 328 330 331 333 332 330 329 325 320 316 314 312 307 306 306 309
294 292 297 303 306 306 303 303 312 310 313 314 319 321 319 323 322 323 324 321 319 318 316 316 317 319 322 326 325 327 329 330 332 331 327 320 313 310 309 306 303 303 306 309
296 293 291 299 315 320 314 299 317 313 313 316 317 311 315 322 321 320 319 318 316 315 315 316 314 316 318 319 319 318 321 325 332 328 321 315 311 307 305 304 303 304 306 306
295 295 299 312 316 319 298 300 319 314 317 317 312 312 318 318 317 317 316 315 315 313 312 312 313 315 313 312 311 314 315 315 317 318 313 311 308 307 305 303 303 303 303 305
294 293 293 314 316 306 311 321 319 317 317 315 315 316 316 315 315 314 314 313 313 311 310 311 311 311 309 308 310 310 310 310 310 312 312 310 307 306 306 305 304 304 303 303
296 297 310 313 310 318 323 321 320 317 318 316 313 313 314 313 314 314 314 312 311 309 308 309 310 310 307 308 310 309 308 307 307 307 307 308 307 305 305 305 304 303 303 302
302 307 312 315 317 317 318 320 320 319 317 316 313 314 313 312 314 313 311 309 309 308 307 307 308 309 309 310 310 308 306 305 307 306 305 305 305 305 304 303 302 302 301 300
303 307 312 316 319 317 316 317 319 318 317 316 316 315 314 311 311 311 310 309 309 308 307 307 308 307 307 306 305 303 302 302 302 302 301 299 298 300 300 300 302 301 300 300
301 309 307 309 319 323 320 320 319 317 315 315 315 312 311 310 311 311 308 308 308 308 308 307 307 305 305 305 304 302 300 300 299 298 297 297 295 293 296 297 295 293 293 294
308 311 314 315 318 319 318 319 318 316 315 312 313 312 311 310 311 311 310 309 309 309 308 307 307 305 303 303 302 299 296 295 295 293 291 291 289 290 288 290 294 292 291 291
312 313 309 314 313 319 320 321 318 316 314 313 311 311 311 310 311 311 310 311 311 310 309 310 307 304 302 297 295 294 293 296 290 289 289 288 288 288 287 287 286 286 290 290
313 313 311 312 315 316 317 316 313 310 311 310 310 310 310 310 310 311 312 312 311 310 308 306 304 300 298 297 295 294 294 292 290 289 289 289 287 287 286 286 286 286 286 289
308 312 314 313 314 315 315 315 311 309 309 308 308 308 311 311 312 312 313 311 306 304 305 305 302 302 302 300 297 296 295 298 294 290 291 289 289 290 288 287 286 286 287 287
305 304 308 310 314 313 313 313 312 311 310 308 308 310 310 312 311 312 311 308 308 307 306 306 305 306 305 302 298 297 297 297 298 294 293 291 291 292 292 290 288 288 288 289
307 309 313 313 313 313 312 313 313 313 311 310 310 311 311 310 310 308 308 307 306 305 306 306 306 306 306 303 301 300 299 298 299 297 296 295 294 295 296 294 292 291 290 292
306 308 311 313 313 314 313 313 314 314 312 311 311 310 310 310 309 308 307 305 305 305 308 310 313 311 307 308 306 303 303 302 300 302 302 301 299 298 298 298 296 296 295 293
307 309 311 312 313 315 313 314 315 314 313 312 309 307 306 307 308 306 306 305 306 309 313 311 310 308 309 310 314 310 307 303 303 302 300 300 299 298 298 297 298 297 295 291
307 308 310 311 311 314 315 314 314 313 313 312 309 310 309 310 308 310 308 308 307 310 311 313 312 309 307 304 303 303 303 304 304 301 302 300 299 298 299 299 299 297 294 290
305 310 312 312 311 311 313 315 315 315 313 311 311 310 309 310 311 310 311 310 309 307 307 307 306 309 307 306 302 302 299 301 299 302 301 300 301 300 299 299 298 297 295 291
309 312 311 309 308 307 310 311 310 311 309 308 306 308 310 311 311 308 304 306 307 304 305 305 298 306 305 300 299 298 298 299 299 300 301 301 302 302 302 301 300 297 295 293
309 310 309 310 310 310 308 310 310 309 310 310 311 311 311 309 308 310 308 305 303 305 304 302 302 303 303 301 300 298 297 298 298 297 296 295 297 296 298 300 300 299 295 292
308 308 309 308 308 308 309 310 310 309 309 310 310 310 310 311 310 308 310 308 303 304 304 302 302 301 300 300 299 299 298 298 297 296 295 295 295 294 295 295 295 294 294 294
306 306 306 306 307 308 309 309 308 309 309 308 310 311 311 310 309 309 308 305 305 304 307 306 306 303 301 300 299 299 297 297 296 295 294 294 294 294 295 294 295 296 294 293
306 304 307 306 308 308 309 309 308 307 308 309 308 309 309 308 307 307 304 307 306 307 307 306 305 303 303 302 299 297 295 294 294 295 295 295 294 294 293 294 294 294 293 293

GFSNGP_sfc_thetae_021.txt.gz
Theta_e
305 304 303 305 307 304 305 308 304 307 307 313 316 320 324 327 328 327 329 334 338 338 338 342 343 344 344 343 344 345 343 341 340 341 343 341 338 334 337 336 334 334 335 336
305 307 305 305 306 307 307 307 307 307 309 316 318 320 322 325 329 329 329 331 336 339 338 340 342 343 344 344 344 345 344 343 343 343 341 339 333 334 335 334 332 333 331 331
302 307 307 303 309 310 311 312 311 309 315 319 320 320 321 325 330 332 330 333 335 337 339 341 341 342 342 344 345 345 344 343 343 342 339 334 332 331 330 331 328 329 329 329
303 306 297 307 313 313 312 315 316 318 318 320 321 322 325 327 330 332 331 334 335 336 335 335 336 338 340 341 341 342 344 343 342 342 336 332 329 327 327 329 324 324 324 325
302 302 304 308 316 316 313 313 323 319 318 321 323 324 322 324 329 331 331 332 328 327 328 329 330 332 332 334 336 337 340 343 341 341 332 328 324 324 326 326 323 318 318 320
305 299 296 308 317 322 321 308 322 322 320 322 323 316 318 319 321 321 322 322 322 323 323 323 324 327 330 330 331 329 326 325 337 335 331 326 322 323 322 324 318 315 312 312
305 304 307 313 319 322 307 309 324 322 323 324 321 319 316 317 317 318 317 318 319 319 318 319 321 322 322 323 319 320 323 320 328 331 329 325 323 320 318 318 317 312 311 310
303 301 299 318 320 313 320 326 323 322 323 319 317 316 315 316 316 316 315 317 319 316 315 316 318 318 316 316 315 315 314 313 313 314 314 315 316 313 315 318 315 310 309 305
306 304 316 320 321 322 323 323 321 319 321 320 317 317 317 317 318 321 323 318 317 315 315 314 315 316 314 312 313 313 312 310 310 310 310 311 310 311 309 310 307 305 305 306
312 315 317 320 323 324 324 324 324 322 320 322 321 322 324 325 324 320 317 316 315 314 312 311 313 313 313 313 313 311 309 309 308 308 309 308 309 310 307 306 305 305 305 306
313 317 319 321 323 324 324 324 323 323 323 323 324 324 322 320 319 317 316 316 317 315 313 312 312 311 310 309 309 307 307 306 306 305 303 301 300 303 305 304 306 307 308 307
312 317 319 318 323 325 323 324 324 322 321 322 322 321 320 317 317 317 316 315 314 313 312 310 310 308 308 309 309 308 307 307 307 305 303 301 300 297 297 297 295 294 295 303
315 319 321 324 326 327 325 325 324 323 323 320 319 319 318 316 317 314 316 316 315 312 311 310 308 307 308 308 309 306 304 304 304 305 306 304 304 305 304 296 294 293 293 293
318 321 318 321 321 325 325 324 321 322 322 320 319 319 318 317 316 316 314 314 313 312 310 309 309 309 309 308 307 306 305 303 309 308 306 304 303 303 303 303 303 303 294 296
314 319 320 320 322 323 324 322 321 320 319 318 319 317 318 317 316 317 316 315 315 314 312 311 309 307 309 309 310 309 307 304 303 301 301 300 301 300 300 300 301 301 302 297
312 316 319 319 319 322 322 320 320 319 319 318 317 317 318 317 316 315 316 315 313 311 311 309 309 309 310 310 307 304 302 300 302 302 301 301 301 300 301 301 301 301 302 303
311 312 315 316 319 321 322 323 322 320 319 318 318 318 316 314 314 314 313 313 315 314 314 313 309 309 309 308 306 305 304 303 303 304 304 304 303 302 302 302 303 302 303 302
313 314 315 313 313 319 322 322 322 320 319 319 318 317 314 313 313 313 313 316 314 313 312 311 310 309 308 308 308 307 307 306 306 306 306 305 305 305 304 303 302 302 302 301
314 314 315 315 314 317 323 323 323 322 320 319 318 315 314 314 314 313 316 314 313 310 310 311 310 312 313 312 311 309 309 308 308 307 307 304 304 305 305 305 304 303 303 302
313 315 316 316 316 318 321 324 324 321 320 320 319 317 314 314 313 314 316 315 316 314 317 316 316 315 316 315 311 312 311 312 311 312 310 309 309 309 308 301 306 307 306 306
312 314 315 317 315 319 321 323 323 321 320 320 318 318 316 314 315 317 316 313 317 318 318 315 316 316 311 314 315 316 315 313 311 311 310 310 308 308 309 309 308 308 307 307
311 314 314 315 319 319 322 322 320 319 319 318 319 319 317 315 317 317 317 315 314 308 314 314 313 312 313 308 306 306 309 310 309 309 310 311 311 310 309 308 308 309 309 309
311 315 316 316 315 315 317 318 317 317 317 316 318 317 317 315 314 312 310 313 315 310 313 310 299 306 306 309 307 305 307 308 306 306 308 310 311 311 311 311 310 310 310 310
310 311 311 313 313 312 310 313 315 317 318 314 316 317 315 311 311 313 313 306 304 307 310 307 304 303 304 304 304 305 306 306 307 308 308 298 307 307 307 308 307 308 308 307
311 312 313 311 309 309 311 312 313 313 312 311 312 312 313 313 310 310 310 308 304 306 307 304 303 303 306 305 306 308 307 307 307 307 307 307 306 306 306 307 306 306 306 307
311 310 311 312 311 312 311 311 309 310 310 308 310 311 310 310 309 308 308 306 308 305 308 308 310 310 309 310 311 311 310 308 306 306 304 306 306 306 306 306 306 306 307 307
309 306 309 309 310 310 310 310 309 308 309 309 308 309 310 310 309 309 306 308 308 308 310 310 312 311 313 311 309 310 311 309 300 304 306 305 305 305 305 305 306 306 306 306

GFSNGP_sfc_thetae_027.txt.gz
Theta_e
311 311 311 310 309 310 309 310 308 310 310 315 323 327 328 334 337 335 337 342 345 345 346 346 345 347 345 345 347 348 347 346 347 348 349 345 345 343 343 344 342 342 341 340
310 311 310 308 309 309 311 311 312 313 312 323 328 331 329 334 337 336 336 339 343 344 347 344 345 345 347 348 348 350 348 346 348 348 348 344 345 341 341 340 340 340 338 336
306 309 309 305 309 310 311 313 313 310 318 325 327 329 330 332 338 337 338 337 342 344 344 346 347 348 348 349 351 351 349 348 347 348 347 344 345 341 339 337 339 337 337 335
307 309 300 311 316 315 313 315 316 316 320 326 329 333 335 336 335 338 339 339 343 344 344 346 348 350 352 351 352 350 351 349 349 349 346 345 343 338 336 336 335 333 334 334
303 304 307 310 314 314 311 311 317 317 321 325 329 333 335 338 340 340 342 342 346 349 345 349 350 352 352 351 352 349 348 349 350 349 347 345 341 337 337 334 333 334 333 332
307 302 299 310 318 323 320 308 318 324 322 324 327 317 328 335 343 343 346 348 346 345 345 343 343 348 347 345 345 342 342 342 345 346 342 342 341 338 336 335 333 331 331 328
303 303 306 315 323 324 308 316 332 332 333 333 330 333 334 334 335 338 338 338 340 340 338 337 342 345 341 340 335 332 333 335 332 341 339 340 338 339 335 332 331 329 327 326
304 301 299 320 320 314 328 336 334 334 334 333 330 329 328 329 328 331 333 334 336 334 329 331 334 338 334 329 327 329 328 325 321 320 322 326 328 326 330 329 329 324 322 318
308 307 327 328 333 335 335 335 336 335 334 334 331 328 328 327 329 325 325 327 329 329 327 328 328 329 322 321 323 324 322 319 317 316 315 316 315 314 315 316 314 315 308 309
314 317 322 327 331 333 335 336 336 335 334 334 334 331 328 329 325 325 327 328 329 329 326 322 323 323 322 323 324 322 319 316 315 313 312 312 313 315 312 311 309 309 308 308
314 321 323 326 331 332 334 334 334 334 334 334 334 332 328 327 326 325 327 330 330 327 323 320 322 322 323 322 322 318 316 314 312 310 306 304 303 305 307 308 310 308 310 310
312 324 326 328 332 333 331 333 332 332 332 334 333 333 330 328 329 331 329 327 326 324 323 322 322 322 321 322 322 320 318 316 315 312 309 308 306 303 299 299 297 296 298 306
320 326 328 330 331 332 332 332 333 333 333 332 334 333 332 331 331 322 325 324 322 322 323 322 320 320 321 323 324 324 321 320 316 316 317 316 314 312 309 301 296 294 294 294
322 325 325 326 327 330 330 331 328 333 333 332 331 331 331 327 325 325 322 322 322 322 321 321 320 320 323 323 323 323 323 312 322 321 320 319 318 316 314 312 310 307 296 300
321 322 324 327 327 328 328 328 327 329 329 329 330 329 327 324 323 321 322 323 322 322 321 321 320 320 323 324 324 323 321 317 314 312 311 310 311 310 310 310 310 309 306 300
319 321 321 322 323 324 325 324 325 326 327 328 329 328 327 324 323 321 323 323 322 320 322 323 322 323 325 325 320 315 313 311 311 311 311 311 312 311 310 310 310 309 308 308
314 315 318 319 320 320 322 324 324 327 326 328 328 327 326 324 322 321 322 322 324 324 325 325 324 326 323 318 316 313 312 312 310 313 313 313 313 312 312 312 311 309 309 304
318 319 320 320 319 319 318 321 325 325 325 326 328 327 325 323 319 321 321 324 324 324 324 324 323 319 317 317 316 314 314 314 315 314 314 315 315 316 316 315 314 313 310 306
317 317 319 320 320 321 320 320 325 327 326 327 327 325 325 322 320 321 323 323 322 319 319 320 316 317 318 317 316 316 315 316 315 316 317 310 315 316 315 315 314 314 313 310
317 318 319 319 320 321 320 321 324 325 328 328 327 325 322 322 321 321 323 320 323 321 320 316 317 318 319 316 313 317 317 318 318 315 315 314 316 316 315 309 313 314 314 313
316 317 318 319 320 321 321 323 321 324 328 329 325 322 320 321 321 321 320 318 321 318 317 314 319 318 318 316 315 318 318 317 317 318 314 316 313 315 316 315 314 313 316 314
316 316 318 320 321 322 323 323 323 327 328 327 325 323 320 320 321 320 323 320 319 310 314 319 318 312 317 313 318 317 318 316 312 314 313 314 314 313 314 314 313 315 315 315
315 316 319 321 322 324 325 326 326 328 326 325 323 322 320 320 320 319 315 320 319 315 316 313 301 308 310 318 316 315 312 312 314 312 312 313 313 313 312 312 311 311 311 311
314 316 320 325 326 325 323 325 326 327 326 323 323 323 320 318 318 317 316 311 307 312 312 308 305 305 307 311 310 309 307 307 310 311 311 301 310 310 310 310 310 310 310 308
315 316 317 319 317 317 318 318 317 318 318 319 319 317 316 316 313 316 314 312 306 311 310 304 305 306 311 311 311 311 311 310 309 308 309 309 309 309 309 309 309 309 308 310
315 315 316 317 315 315 315 314 312 313 311 309 310 311 312 312 312 313 315 312 312 309 310 311 311 312 311 311 311 314 313 311 310 311 308 310 310 310 309 309 309 309 310 310
314 310 315 315 316 316 316 314 311 309 310 309 307 309 310 310 310 311 309 312 312 312 311 311 310 311 315 314 312 310 310 310 303 309 310 310 310 310 309 309 309 308 309 307

GFSNGP_sfc_thetae_033.txt.gz
Theta_e
305 307 306 305 308 307 303 301 296 300 307 310 311 315 317 318 319 322 324 337 337 339 338 331 327 328 334 334 337 341 339 343 341 340 338 337 335 334 335 336 333 330 328 326
302 308 307 305 308 308 308 306 306 308 307 314 315 316 317 318 319 320 322 338 340 341 340 333 329 328 332 334 340 341 340 343 343 340 339 336 335 334 335 332 330 328 326 324
298 307 306 301 306 307 308 308 306 299 308 314 317 315 316 319 319 321 331 340 342 341 341 338 335 334 336 342 343 341 342 345 343 341 339 338 336 333 333 330 330 327 324 322
300 304 294 305 311 311 311 312 312 314 316 316 317 320 322 325 327 326 334 340 342 342 339 337 338 341 343 344 342 341 342 344 344 341 338 335 333 332 331 330 330 325 321 319
297 297 303 307 311 308 305 308 320 317 315 319 325 322 318 330 341 339 337 340 341 342 341 341 342 343 343 342 340 341 341 339 340 341 337 335 331 330 332 330 328 328 325 320
298 295 294 305 313 317 314 306 322 319 319 320 317 306 312 322 336 338 337 337 337 337 337 338 339 337 332 332 331 328 328 328 331 336 337 334 333 330 331 330 328 324 321 316
299 296 300 309 317 317 300 305 318 323 322 315 312 314 319 332 332 333 332 330 329 329 328 329 333 329 326 325 324 323 323 322 323 327 333 334 333 332 330 329 324 322 317 314
298 296 294 318 318 313 312 315 329 328 326 323 324 325 326 327 329 326 326 327 327 324 323 324 325 324 321 321 321 320 319 318 317 318 320 324 328 328 327 324 321 317 311 309
300 300 322 329 326 331 320 329 329 327 327 326 325 324 326 325 325 325 324 324 324 321 320 322 323 322 319 320 319 317 318 314 313 314 315 317 318 319 319 317 315 311 310 308
307 315 322 328 329 330 331 330 330 331 329 328 325 326 324 325 326 324 324 323 321 319 317 317 318 320 320 320 319 316 312 310 310 309 308 310 312 313 313 312 310 309 308 307
311 318 322 326 326 328 330 331 330 333 331 328 327 324 323 325 325 327 325 325 322 318 318 319 320 320 321 320 317 314 312 310 308 307 306 304 302 305 307 305 309 309 309 309
308 316 317 317 321 326 329 329 329 329 331 330 327 324 324 324 326 326 325 324 322 320 319 319 319 319 320 319 317 314 311 310 309 308 307 307 305 303 300 299 298 297 297 304
313 322 323 323 319 324 328 331 332 331 330 329 328 326 327 324 326 323 324 322 321 320 319 319 319 318 320 321 317 314 311 309 309 308 307 306 305 302 298 297 296 295 294 294
319 320 320 324 321 327 325 324 327 330 333 331 329 329 326 323 322 320 319 319 321 320 319 319 318 319 322 323 322 316 314 311 313 312 311 310 309 306 302 299 297 296 295 295
316 317 316 319 324 327 322 323 321 320 325 325 329 327 325 322 319 318 321 321 320 320 319 319 319 319 321 321 319 318 316 314 315 315 314 312 311 308 306 303 300 298 294 294
313 315 315 317 320 323 321 320 318 321 324 325 324 323 322 321 320 321 320 320 318 317 319 319 319 319 321 320 318 316 312 311 307 303 303 304 305 304 306 303 301 298 297 296
309 308 311 313 316 317 319 319 320 319 320 318 321 323 321 319 318 319 319 320 319 321 320 320 320 323 321 321 318 306 304 303 310 304 304 305 305 304 303 304 304 303 301 300
313 313 312 311 312 313 317 317 317 322 318 322 325 324 320 318 316 319 320 322 321 321 321 321 322 320 320 315 308 306 305 304 304 306 307 307 306 306 307 307 304 305 302 299
315 314 314 315 314 314 317 318 320 324 325 324 322 323 321 318 318 319 320 320 319 318 319 322 323 318 313 312 311 308 307 308 309 309 307 307 310 308 310 308 307 306 303 299
313 315 314 315 316 315 315 318 318 322 325 325 323 319 320 320 319 318 319 318 318 318 316 313 311 312 314 310 313 308 311 311 310 310 309 310 310 305 306 306 307 307 303 300
311 313 313 313 314 316 317 318 319 320 322 320 320 318 319 319 320 320 317 317 317 315 311 313 313 311 311 309 308 311 310 308 307 307 309 309 309 307 307 306 306 307 309 307
310 311 311 313 313 314 317 318 317 319 321 321 319 317 317 318 319 319 319 313 314 311 309 309 312 315 310 313 309 310 309 309 309 308 308 308 306 308 308 308 307 307 305 307
311 311 312 311 312 313 316 318 317 319 319 319 316 318 317 317 319 316 311 312 311 311 308 307 301 311 313 308 308 307 308 307 305 304 304 305 305 305 306 304 306 305 305 305
312 313 313 314 316 315 313 310 312 315 319 321 319 319 315 310 307 309 308 306 305 307 307 305 305 307 308 308 308 306 304 304 304 306 306 302 305 305 304 305 305 305 304 302
314 314 315 315 314 314 314 313 311 311 316 316 317 315 313 312 307 308 308 307 305 307 308 305 306 307 309 308 307 306 305 306 306 305 306 305 304 304 304 305 304 303 302 300
314 313 313 314 313 313 313 314 312 312 312 311 312 312 310 310 310 310 309 308 309 307 310 310 309 309 309 309 309 308 308 310 308 305 304 305 304 303 303 303 302 300 298 296
312 308 312 312 312 312 312 311 310 309 310 310 309 310 311 311 310 309 308 310 310 310 310 308 307 307 308 307 308 309 308 303 302 305 305 303 303 302 301 300 298 297 296 294